Location: Dodgeville
(42.9600°N, 90.1300°W)
Time: 02:04:42
(UTC-05:00)

Amateur Radio Satellites - All Passes

Search period start: 21 October 2014 01:34
Search period end: 22 October 2014 01:34
Location: Dodgeville, 42.9600°N, 90.1300°W

Satellite Date Start Highest point End Downlink Frequencies (MHz)
Time Altitude Azimuth
AO-Echo 21 Oct 01:58:56 02:02:34 19° 91° (E) 02:06:12 ?
MaSat-1 21 Oct 02:20:46 02:23:44 19° 306° (NW) 02:26:31 437.345 MHz
Oscar 19 21 Oct 02:22:00 02:27:01 53° 100° (E) 02:32:00 437.125 CW, 437.150 USB
AO-27 21 Oct 02:29:14 02:33:37 26° 95° (E) 02:37:57 436.795 MHz FM
Oscar 16 21 Oct 03:07:03 03:12:06 59° 288° (WNW) 03:17:06 437.025 USB, Beacon 2401.1428
JAS-1B 21 Oct 03:17:54 03:24:15 75° 287° (WNW) 03:31:49 435.800 - 435.900 CW/SSB
Gurwin Techsat 1B 21 Oct 03:18:16 03:23:15 39° 98° (E) 03:28:11 435.225 FM
Uribyol 2 21 Oct 03:18:40 03:23:55 78° 103° (ESE) 03:29:06 436.500 FM
ITAMSAT 1 21 Oct 03:23:34 03:28:50 81° 104° (ESE) 03:34:03 435.822 SSB
RS-15 21 Oct 03:31:53 03:40:13 24° 352° (N) 03:48:40 29.354 - 29.394 USB, Beacon 29.352 USB
TMSAT-1 21 Oct 03:32:20 03:37:19 39° 97° (E) 03:42:14 436.925 FM
AO-Echo 21 Oct 03:36:29 03:41:41 60° 288° (WNW) 03:46:54 ?
Oscar 19 21 Oct 04:02:16 04:05:58 21° 298° (WNW) 04:09:40 437.125 CW, 437.150 USB
AO-27 21 Oct 04:08:21 04:13:14 41° 292° (WNW) 04:18:05 436.795 MHz FM
OPAL 21 Oct 04:12:50 04:17:06 27° 63° (ENE) 04:21:21 ?
AO-7 21 Oct 04:33:03 04:40:29 35° 97° (E) 04:47:53 29.400 - 29.500 MHz
Sapphire 21 Oct 04:43:41 04:48:44 42° 112° (ESE) 04:53:49 437.095 MHz 1200 baud AX-25 AFSK
Gurwin Techsat 1B 21 Oct 04:58:33 05:03:03 29° 295° (WNW) 05:07:32 435.225 FM
Uribyol 2 21 Oct 04:59:48 05:02:43 15° 301° (WNW) 05:05:38 436.500 FM
ITAMSAT 1 21 Oct 05:04:49 05:07:38 15° 302° (WNW) 05:10:26 435.822 SSB
PCSat 21 Oct 05:06:19 05:11:41 71° 117° (ESE) 05:17:06 145.825 MHz
JAS-1B 21 Oct 05:11:13 05:14:07 14° 304° (NW) 05:17:12 435.800 - 435.900 CW/SSB
TMSAT-1 21 Oct 05:12:34 05:17:04 29° 295° (WNW) 05:21:32 436.925 FM
Uosat F 21 Oct 05:17:38 05:22:37 56° 101° (E) 05:27:34 435.120 FM
RS-15 21 Oct 05:47:49 05:57:21 32° 27° (NNE) 06:07:07 29.354 - 29.394 USB, Beacon 29.352 USB
STRAND 1 21 Oct 05:50:50 05:54:43 22° 63° (ENE) 05:58:37 ?
OPAL 21 Oct 05:50:55 05:55:47 41° 259° (W) 06:00:38 ?
Hamsat 21 Oct 06:01:30 06:04:42 21° 93° (E) 06:07:53 145.90 MHz
JAS-2 21 Oct 06:04:54 06:12:19 49° 98° (E) 06:19:51 435.800 - 435.900 CW/SSB, 435.910 FM
AO-7 21 Oct 06:25:31 06:33:33 56° 296° (WNW) 06:41:35 29.400 - 29.500 MHz
Sapphire 21 Oct 06:27:27 06:32:16 32° 311° (NW) 06:37:07 437.095 MHz 1200 baud AX-25 AFSK
PCSat 21 Oct 06:51:32 06:55:39 22° 317° (NW) 06:59:48 145.825 MHz
Uosat F 21 Oct 06:57:25 07:00:59 20° 298° (WNW) 07:04:32 435.120 FM
STRAND 1 21 Oct 07:28:36 07:33:33 50° 260° (W) 07:38:34 ?
Hamsat 21 Oct 07:36:57 07:40:43 33° 290° (WNW) 07:44:30 145.90 MHz
JAS-2 21 Oct 07:50:11 07:57:07 40° 295° (WNW) 08:04:15 435.800 - 435.900 CW/SSB, 435.910 FM
RS-15 21 Oct 08:00:28 08:11:41 81° 55° (NE) 08:23:21 29.354 - 29.394 USB, Beacon 29.352 USB
AO-7 21 Oct 08:20:47 08:24:33 14° 317° (NW) 08:28:19 29.400 - 29.500 MHz
SO-67 21 Oct 08:31:41 08:35:01 47° 286° (WNW) 08:38:20 435.3500 MHz FM
Saudisat 1A 21 Oct 08:42:00 08:46:13 49° 119° (ESE) 08:50:29 436.775 MHz
HO-68 21 Oct 09:36:54 09:43:47 46° 99° (E) 09:50:37 435.675 MHz FM
Oscar 11 21 Oct 09:38:47 09:40:55 13° 90° (E) 09:43:01 145.825 FM, Beacon 2401.500 USB
RS-15 21 Oct 10:13:57 10:22:56 29° 256° (WSW) 10:32:14 29.354 - 29.394 USB, Beacon 29.352 USB
ZACube-1 21 Oct 10:16:33 10:18:55 14° 90° (E) 10:21:14 437.345 MHz
Saudisat 1A 21 Oct 10:22:32 10:26:02 23° 317° (NW) 10:29:34 436.775 MHz
UKube-1 21 Oct 10:28:00 10:32:16 49° 100° (E) 10:36:29 145.840 MHz, 145.915 MHz
MaSat-1 21 Oct 10:29:56 10:32:39 72° 245° (WSW) 10:35:06 437.345 MHz
FUNcube-1 21 Oct 11:00:56 11:05:03 43° 98° (E) 11:09:04 145.950 - 145.970 MHz USB
Oscar 11 21 Oct 11:13:13 11:17:27 56° 287° (WNW) 11:21:39 145.825 FM, Beacon 2401.500 USB
HO-68 21 Oct 11:24:52 11:31:20 37° 298° (WNW) 11:37:46 435.675 MHz FM
Sapphire 21 Oct 11:50:07 11:50:45 10° 30° (NNE) 11:51:23 437.095 MHz 1200 baud AX-25 AFSK
ZACube-1 21 Oct 11:51:28 11:55:40 50° 287° (WNW) 11:59:44 437.345 MHz
Oscar 19 21 Oct 12:04:25 12:06:19 12° 57° (ENE) 12:08:14 437.125 CW, 437.150 USB
UKube-1 21 Oct 12:05:13 12:08:04 17° 297° (WNW) 12:10:54 145.840 MHz, 145.915 MHz
PCSat 21 Oct 12:11:26 12:14:22 15° 36° (NE) 12:17:19 145.825 MHz
JAS-1B 21 Oct 12:18:02 12:21:20 16° 58° (ENE) 12:24:33 435.800 - 435.900 CW/SSB
FUNcube-1 21 Oct 12:38:12 12:41:06 18° 296° (WNW) 12:43:57 145.950 - 145.970 MHz USB
Oscar 16 21 Oct 12:46:31 12:50:54 29° 66° (ENE) 12:55:18 437.025 USB, Beacon 2401.1428
KITSAT 1 21 Oct 12:46:35 12:54:13 48° 112° (ESE) 13:01:52 435.175 FM
Uribyol 2 21 Oct 13:00:18 13:03:44 18° 61° (ENE) 13:07:12 436.500 FM
ITAMSAT 1 21 Oct 13:05:13 13:08:45 19° 61° (ENE) 13:12:18 435.822 SSB
AO-Echo 21 Oct 13:12:52 13:16:46 25° 64° (ENE) 13:20:47 ?
SO-50 21 Oct 13:28:44 13:32:28 26° 113° (ESE) 13:36:18 436.795 FM
Sapphire 21 Oct 13:30:31 13:35:42 43° 52° (NE) 13:40:50 437.095 MHz 1200 baud AX-25 AFSK
Oscar 19 21 Oct 13:39:41 13:44:51 84° 75° (ENE) 13:50:02 437.125 CW, 437.150 USB
AO-7 21 Oct 13:46:38 13:49:51 13° 41° (NE) 13:53:04 29.400 - 29.500 MHz
AO-27 21 Oct 13:48:05 13:53:00 44° 69° (ENE) 13:57:57 436.795 MHz FM
PCSat 21 Oct 13:53:24 13:58:50 68° 57° (ENE) 14:04:14 145.825 MHz
JAS-1B 21 Oct 14:05:16 14:11:25 78° 256° (WSW) 14:17:08 435.800 - 435.900 CW/SSB
Oscar 16 21 Oct 14:25:22 14:30:07 37° 263° (W) 14:34:54 437.025 USB, Beacon 2401.1428
ISS 21 Oct 14:36:14 14:39:32 65° 143° (SE) 14:42:51 145.800 FM
Uribyol 2 21 Oct 14:37:30 14:42:41 65° 258° (WSW) 14:47:54 436.500 FM
Oscar 10/S400 21 Oct 14:38:01 14:55:09 39° 154° (SSE) 15:21:03 145.825 - 145.975 CW/USB, Beacon 145.810 USB
Gurwin Techsat 1B 21 Oct 14:40:10 14:45:25 67° 73° (ENE) 14:50:42 435.225 FM
KITSAT 1 21 Oct 14:42:02 14:49:41 45° 313° (NW) 14:57:23 435.175 FM
ITAMSAT 1 21 Oct 14:42:36 14:47:44 62° 258° (WSW) 14:52:56 435.822 SSB
AO-Echo 21 Oct 14:50:45 14:55:18 40° 262° (W) 15:00:01 ?
TMSAT-1 21 Oct 14:53:53 14:59:08 66° 73° (ENE) 15:04:24 436.925 FM
Uosat F 21 Oct 14:57:00 14:58:45 12° 57° (ENE) 15:00:30 435.120 FM
SO-50 21 Oct 15:08:37 15:12:51 39° 312° (NW) 15:17:13 436.795 FM
UOSAT-12 21 Oct 15:12:42 15:16:37 28° 113° (ESE) 15:20:35 437.025 FM, 437.400 FM
Sapphire 21 Oct 15:14:16 15:18:56 30° 251° (WSW) 15:23:35 437.095 MHz 1200 baud AX-25 AFSK
Oscar 19 21 Oct 15:22:59 15:24:50 12° 272° (W) 15:26:41 437.125 CW, 437.150 USB
AO-27 21 Oct 15:28:31 15:32:41 24° 266° (W) 15:36:53 436.795 MHz FM
Saudisat 1A 21 Oct 15:30:32 15:31:28 11° 31° (NNE) 15:32:24 436.775 MHz
AO-7 21 Oct 15:32:50 15:40:44 52° 63° (ENE) 15:48:39 29.400 - 29.500 MHz
PCSat 21 Oct 15:38:10 15:41:40 18° 255° (WSW) 15:45:09 145.825 MHz
ISS 21 Oct 16:13:33 16:16:27 27° 342° (NNW) 16:19:22 145.800 FM
JAS-2 21 Oct 16:20:01 16:24:21 21° 57° (ENE) 16:29:03 435.800 - 435.900 CW/SSB, 435.910 FM
Gurwin Techsat 1B 21 Oct 16:22:39 16:25:52 16° 270° (W) 16:29:06 435.225 FM
Uosat F 21 Oct 16:31:43 16:36:44 85° 75° (ENE) 16:41:48 435.120 FM
TMSAT-1 21 Oct 16:36:17 16:39:31 16° 270° (W) 16:42:47 436.925 FM
KITSAT 1 21 Oct 16:42:37 16:47:31 17° 339° (NNW) 16:52:25 435.175 FM
UOSAT-12 21 Oct 16:52:14 16:56:36 39° 312° (NW) 17:01:03 437.025 FM, 437.400 FM
Hamsat 21 Oct 16:56:14 16:59:05 18° 65° (ENE) 17:01:57 145.90 MHz
Saudisat 1A 21 Oct 17:07:43 17:12:04 52° 52° (NE) 17:16:22 436.775 MHz
AO-7 21 Oct 17:26:11 17:33:42 38° 262° (W) 17:41:16 29.400 - 29.500 MHz
ISS 21 Oct 17:51:32 17:53:57 18° 2° (N) 17:56:22 145.800 FM
OPAL 21 Oct 17:59:41 18:04:28 46° 101° (ESE) 18:09:12 ?
JAS-2 21 Oct 18:02:55 18:08:38 69° 259° (WSW) 18:15:11 435.800 - 435.900 CW/SSB, 435.910 FM
Uosat F 21 Oct 18:14:36 18:16:09 11° 272° (W) 18:17:43 435.120 FM
Hamsat 21 Oct 18:30:43 18:34:44 42° 262° (W) 18:38:45 145.90 MHz
KITSAT 1 21 Oct 18:43:04 18:47:00 14° 11° (N) 18:50:55 435.175 FM
Saudisat 1A 21 Oct 18:48:14 18:51:15 18° 249° (WSW) 18:54:15 436.775 MHz
SO-67 21 Oct 19:04:45 19:08:07 57° 75° (ENE) 19:11:30 435.3500 MHz FM
ISS 21 Oct 19:28:17 19:31:22 33° 22° (NNE) 19:34:26 145.800 FM
STRAND 1 21 Oct 19:38:07 19:43:10 52° 100° (E) 19:48:10 ?
OPAL 21 Oct 19:39:13 19:43:04 23° 299° (WNW) 19:46:53 ?
HO-68 21 Oct 20:06:31 20:12:59 39° 63° (ENE) 20:19:30 435.675 MHz FM
Oscar 11 21 Oct 20:35:22 20:37:25 13° 62° (ENE) 20:39:27 145.825 FM, Beacon 2401.500 USB
KITSAT 1 21 Oct 20:38:30 20:45:32 31° 39° (NE) 20:52:31 435.175 FM
ISS 21 Oct 21:04:57 21:08:08 42° 220° (SW) 21:11:18 145.800 FM
ZACube-1 21 Oct 21:13:58 21:16:43 16° 63° (ENE) 21:19:28 437.345 MHz
STRAND 1 21 Oct 21:18:09 21:21:59 22° 297° (WNW) 21:25:48 ?
UKube-1 21 Oct 21:24:10 21:28:20 48° 71° (ENE) 21:32:33 145.840 MHz, 145.915 MHz
HO-68 21 Oct 21:53:50 22:00:35 44° 261° (W) 22:07:24 435.675 MHz FM
FUNcube-1 21 Oct 21:57:42 22:02:01 41° 71° (ENE) 22:06:18 145.950 - 145.970 MHz USB
SO-50 21 Oct 21:58:39 22:03:06 35° 47° (NE) 22:07:34 436.795 FM
Oscar 11 21 Oct 22:08:45 22:13:04 65° 259° (WSW) 22:17:23 145.825 FM, Beacon 2401.500 USB
RS-15 21 Oct 22:25:23 22:35:36 47° 110° (ESE) 22:45:44 29.354 - 29.394 USB, Beacon 29.352 USB
KITSAT 1 21 Oct 22:33:39 22:41:43 77° 242° (WSW) 22:49:45 435.175 FM
ZACube-1 21 Oct 22:48:06 22:52:39 59° 260° (W) 22:57:11 437.345 MHz
UKube-1 21 Oct 23:02:05 23:04:47 16° 268° (W) 23:07:31 145.840 MHz, 145.915 MHz
FUNcube-1 21 Oct 23:35:06 23:38:32 21° 267° (W) 23:41:58 145.950 - 145.970 MHz USB
SO-50 21 Oct 23:39:17 23:43:38 34° 245° (WSW) 23:48:00 436.795 FM
UOSAT-12 21 Oct 23:40:53 23:45:12 34° 46° (NE) 23:49:27 437.025 FM, 437.400 FM
MaSat-1 22 Oct 00:08:06 00:11:39 26° 109° (ESE) 00:14:57 437.345 MHz
KITSAT 1 22 Oct 00:31:40 00:35:46 15° 261° (W) 00:39:52 435.175 FM
RS-15 22 Oct 00:37:02 00:47:44 56° 314° (NW) 00:58:30 29.354 - 29.394 USB, Beacon 29.352 USB
UOSAT-12 22 Oct 01:21:06 01:25:20 33° 245° (WSW) 01:29:29 437.025 FM, 437.400 FM
